Tracking 29892 objects as of 21-Nov-2024
HD Live streaming from Space Station
objects crossing your sky now

SMDC ONE 2.3

Track SMDC ONE 2.3 now!
10-day predictions
SMDC ONE 2.3 is classified as:


NORAD ID: 39474
Int'l Code: 2013-072N
Perigee: 424.4 km
Apogee: 657.7 km
Inclination: 120.5 °
Period: 95.3 minutes
Semi major axis: 6912 km
RCS: Unknown
Launch date: December 6, 2013
Source: United States (US)
Launch site: AIR FORCE WESTERN TEST RANGE (AFWTR)

SMDC ONE 2.3 is a military satellite that will test advanced nanosatellite communications technologies.
Your satellite tracking list
Your tracking list is empty




NASA's NSSDC Master Catalog

Two Line Element Set (TLE):
1 39474U 13072N   24325.25703954  .00037811  00000-0  16091-2 0  9990
2 39474 120.4713  34.0208 0168762 134.3867 227.1157 15.10746852 29595
Source of the keplerian elements: AFSPC